CZ-6A DEB

Satellite information

Favourite Embed

Satellite Type and Status

DEBRISIN ORBIT

Key statistics

Satellite CZ-6A DEB at a glance.

Uptime

970

Days in orbit

Revolutions

≈ 14.2

Per day

Orbit

SSO

Sun Synchronous Orbit

Inclination

98.8

Latest

Satellite identification and parameters

Extended collection of information and parameters for CZ-6A DEB.

Object identification

Identified? True

Debris? True

Object name: CZ-6A DEB

International designator: 2022-151AHS

Object number (NORAD): 57575

Object ID (CCSDS): 57575

Country: PEOPLES REPUBLIC OF CHINA (PRC)

Current information (Y/N): Y

RCS size: SMALL

Orbital parameters

Period: 101.505 minutes

Inclination: 98.8035 deg

SMA: 7208.082 km

Apoapsis: 861.602 km

Periapsis: 798.291 km

RAAN: 190.2534 deg

Eccentricy: 0.0043917

Argument of periapsis: 207.2609 deg

Mean anomaly: 152.6261 deg

Mean motion: 14.18643285 rev/day

Mean motion (dot): 0.00002781 rev/day2

B* drag term: 0.0013496 1/REarth

Two-line elements (TLE)

Creation date: July 6, 2025, 6:05 p.m.

Reference frame: TEME

Reference center: EARTH

Epoch: July 6, 2025, 10:41 a.m. UTC

TLE line 0: 0 CZ-6A DEB

TLE line 1: 1 57575U 22151AHS 25187.44549429 .00002781 00000-0 13496-2 0 9997

TLE line 2: 2 57575 98.8035 190.2534 0043917 207.2609 152.6261 14.18643285122187

Live tracking on map

Real-time ground track for satellite CZ-6A DEB.

In-orbit conjunctions

A list of the most updated potential collisions computed for object CZ-6A DEB.

Target Orbit TCA Probability of collision Miss distance Type
CZ-6A DEB SSO 2024-09-24 23:48:13 0.0001210695 941.0 (m) DEBRIS
SL-3 R/B LEO 2024-09-20 19:35:02 0.000182192 242.0 (m) ROCKET BODY

Associated space launch

Chinese satellite reported for atmospheric/ocean/environmental/spatial parameter research purposes, details TBD.

CZ-6A DEB was lifted into orbit during the mission ‘Long March 6A | Yunhai 3’, on board a Long March 6A space rocket.

The launch took place on Nov. 11, 2022, 10:52 p.m. from Launch Complex 9A.

For more information about the launch, click the button.

Launch to space Long March 6A | Yunhai 3
Long March 6A | Yunhai 3

Agency: N/A

Status: Launch Successful

Launch date: Nov. 11, 2022, 10:52 p.m. UTC

Rocket: Long March 6A

Launch pad: Launch Complex 9A

Location: Taiyuan Satellite Launch Center, People's Republic of China

...

Latest news about this satellite

There are no fresh news available about this satellite. Check back as we update our databases every day.


Newsletter sign-up

Weekly statistics, charts and insights to help you stay on top of the space industry.